Orbital Elements at Epoch 2459000.5 (2020-May-31.0) TDB
Reference: JPL 18 (heliocentric ecliptic J2000)
Element | Value | Uncertainty (1-sigma) | Units |
e | .1490997984259065 | 3.8709e-08 | |
a | 2.689088750996518 | 1.8723e-08 | au |
q | 2.288146160273565 | 1.0512e-07 | au |
i | 14.86548939553921 | 4.2958e-06 | deg |
node | 50.85920622088479 | 2.0178e-05 | deg |
peri | 208.8505397786107 | 2.7936e-05 | deg |
M | 262.8178687206226 | 2.2454e-05 | deg |
tp | 2459435.300514480279 (2021-Aug-08.80051448) | 0.0001029 | TDB |
period | 1610.668372387472 4.41 | 1.6822e-05 4.606e-08 | d yr |
n | .223509697074623 | 2.3343e-09 | deg/d |
Q | 3.090031341719472 | 2.1515e-08 | au |
|
| | Orbit Determination Parameters
Additional Information
|